BEIDOU-3 G1 (C59)

Last updated on Sun Oct 19 2025 00:03:25 GMT+0000 (Coordinated Universal Time)

1 43683U 18085A 25291.29612275 -.00000280 00000+0 00000+0 0 9998 2 43683 2.9658 104.1690 0002989 14.3971 155.1605 1.00269867 25638
UTC large
Height (km)
Speed (km/s)
/
Latitude / Longitude
Inclination (degrees)
Orbital Period (minutes)
Azimuth
Elevation
Range (km)
Doppler Factor

Next 0 passes for location: London (51.5072 / 0.1276)

Sorry there are no passes over London.